Flag for Norway Weather past 2 weeks in Kleppestø, Norway

Now
37 °F

Chilly.


Feels Like: 37 °F
Forecast: 40 / 43 °F
Wind: 1 mph from West

Location: Bergen / Florida

Current Time: Mar 27, 2015 at 4:51:42 AM

Latest Report: Mar 27, 2015 at 3:00 AM


Visibility: N/A

Pressure: 29.76 "Hg

Humidity: 66%

Dew point: 27 °F

Location of KleppestøLocation

Historic Weather in Kleppestø — Graph

°F

Kleppestø temperature yesterday

Maximum temperature yesterday: 42 °F (at 3:00 PM)
Minimum temperature yesterday: 36 °F (at 8:00 AM)
Average temperature yesterday: 40 °F

Past Weeks' High & Low Weather Summary

 TemperatureHumidityPressure
High56 °F (Mar 17, 2:00 PM)89% (Mar 14, 7:00 AM)30.78 "Hg (Mar 14, 7:00 AM)
Low29 °F (Mar 15, 5:00 AM)23% (Mar 21, 3:00 PM)29.55 "Hg (Mar 23, 9:00 AM)
Average42 °F65%30.26 "Hg
* Reported Mar 12 3:00 AM — Mar 27 3:00 AM, Kleppestø, Weather by CustomWeather, © 2015

Note: Actual official high and low records may vary slightly from our data, if they occured in-between our weather recording intervals... More about our weather records

Advertising

Kleppestø weather history for previous 24 hours

 ConditionsComfort  
Time TempWeatherWind HumidityBarometerVisibility
3:00 AM
Fri, Mar 27
37 °FChilly.1 mph66%29.76 "HgN/A
2:00 AM37 °FChilly.1 mph64%29.75 "HgN/A
1:00 AM38 °FChilly.1 mph65%29.74 "HgN/A
12:00 AM38 °FChilly.No wind65%29.72 "HgN/A
11:00 PM
Thu, Mar 26
38 °FChilly.1 mph64%29.71 "HgN/A
9:00 PM38 °FChilly.1 mph53%29.68 "HgN/A
8:00 PM39 °FChilly.1 mph50%29.67 "HgN/A
7:00 PM40 °FOvercast.2 mph45%29.65 "Hg25 mi
6:00 PM41 °FQuite cool.1 mph42%29.64 "HgN/A
5:00 PM41 °FQuite cool.2 mph45%29.62 "HgN/A
4:00 PM41 °FOvercast.1 mph43%29.62 "Hg25 mi
3:00 PM42 °FQuite cool.1 mph38%29.61 "HgN/A
2:00 PM42 °FQuite cool.3 mph39%29.61 "HgN/A
1:00 PM42 °FPartly sunny.3 mph41%29.61 "Hg25 mi
12:00 PM40 °FQuite cool.6 mph45%29.62 "HgN/A
11:00 AM40 °FChilly.3 mph47%29.63 "HgN/A
10:00 AM38 °FOvercast.5 mph51%29.64 "Hg25 mi
9:00 AM36 °FChilly.5 mph54%29.65 "HgN/A
8:00 AM36 °FChilly.5 mph58%29.66 "HgN/A
7:00 AM39 °FOvercast.6 mph46%29.67 "Hg25 mi
6:00 AM40 °FChilly.9 mph44%29.69 "HgN/A
5:00 AM41 °FQuite cool.7 mph40%29.71 "HgN/A
4:00 AM41 °FQuite cool.7 mph38%29.74 "HgN/A
Weather by CustomWeather, © 2015

See weather overviewHow to use our weather pages